Valley City, ND

9:47 PM CDT on October 18, 2019 (GMT -0500)
Valley City

Weather History for KBAC - August, 2019

Change the Weather History Date:

Thursday, August 22, 2019

  Actual Average (KJMS) Record (KJMS)
Temperature  
Mean Temperature 60 °F -  
Max Temperature 73 °F 80 °F 102 °F (1947)
Min Temperature 48 °F 55 °F 32 °F (1908)
Degree Days  
Heating Degree Days 4    
Growing Degree Days 10 (Base 50)    
Moisture  
Dew Point 53 °F    
Average Humidity 77    
Maximum Humidity 100    
Minimum Humidity 47    
Precipitation  
Precipitation 0.00 in - - ()
Sea Level Pressure  
Sea Level Pressure 30.09 in    
Wind  
Wind Speed 5 mph ()    
Max Wind Speed 14 mph    
Max Gust Speed 21 mph    
Visibility 9.9 miles    
Events      
Averages and records for this station are not official NWS values.
T = Trace of Precipitation, MM = Missing Value Source: Averaged Metar Reports

Daily Weather History Graph

Daily Weather History Graph

Search for Another Location

Airport or City:

Astronomy

Aug. 22, 2019 Rise Set
Actual Time 6:38 AM CDT 8:30 PM CDT
Civil Twilight 6:05 AM CDT 9:03 PM CDT
Nautical Twilight 5:25 AM CDT 9:42 PM CDT
Astronomical Twilight 4:41 AM CDT 10:26 PM CDT
Moon 11:55 PM CDT (8/22) 1:40 PM CDT (8/22)
Length of Visible Light 14h 57m
Length of Day
13h 52m
Waning Gibbous, 59% of the Moon is Illuminated
Aug 22
Waning Gibbous
Aug 23
Last Quarter
Aug 30
New
Sep 5
First Quarter
Sep 13
Full

Hourly Weather History & Observations

Time (CDT) Temp. Dew Point Humidity Pressure Visibility Wind Dir Wind Speed Gust Speed Precip Events Conditions
12:15 AM 53.6 °F 53.6 °F 100% 30.10 in 10.0 mi Calm Calm - N/A   Clear
12:35 AM 53.6 °F 53.6 °F 100% 30.10 in 10.0 mi Calm Calm - N/A   Clear
12:55 AM 53.6 °F 53.6 °F 100% 30.10 in 10.0 mi Calm Calm - N/A   Clear
1:15 AM 51.8 °F 51.8 °F 100% 30.11 in 10.0 mi Calm Calm - N/A   Clear
1:35 AM 53.6 °F 53.6 °F 100% 30.11 in 10.0 mi Variable 3.5 mph - N/A   Clear
1:55 AM 51.8 °F 51.8 °F 100% 30.11 in 10.0 mi NNE 6.9 mph - N/A   Clear
2:15 AM 53.6 °F 53.6 °F 100% 30.11 in 10.0 mi ENE 5.8 mph - N/A   Clear
2:35 AM 51.8 °F 51.8 °F 100% 30.10 in 10.0 mi East 4.6 mph - N/A   Clear
2:55 AM 51.8 °F 51.8 °F 100% 30.10 in 10.0 mi SE 3.5 mph - N/A   Clear
3:15 AM 51.8 °F 51.8 °F 100% 30.09 in 10.0 mi ESE 4.6 mph - N/A   Clear
3:35 AM 51.8 °F 51.8 °F 100% 30.09 in 10.0 mi Calm Calm - N/A   Clear
3:55 AM 51.8 °F 51.8 °F 100% 30.09 in 10.0 mi Calm Calm - N/A   Clear
4:15 AM 50.0 °F 50.0 °F 100% 30.09 in 10.0 mi East 4.6 mph - N/A   Clear
4:35 AM 50.0 °F 50.0 °F 100% 30.09 in 10.0 mi Calm Calm - N/A   Clear
4:55 AM 50.0 °F 50.0 °F 100% 30.09 in 10.0 mi Calm Calm - N/A   Clear
5:15 AM 50.0 °F 50.0 °F 100% 30.09 in 10.0 mi Calm Calm - N/A   Clear
5:35 AM 50.0 °F 50.0 °F 100% 30.09 in 10.0 mi NE 3.5 mph - N/A   Clear
5:55 AM 50.0 °F 50.0 °F 100% 30.09 in 10.0 mi East 4.6 mph - N/A   Clear
6:15 AM - - N/A% 30.09 in 10.0 mi Calm Calm - N/A   Clear
6:35 AM 48.2 °F 48.2 °F 100% 30.10 in 10.0 mi East 3.5 mph - N/A   Clear
6:55 AM 50.0 °F 50.0 °F 100% 30.10 in 10.0 mi Calm Calm - N/A   Clear
7:15 AM 50.0 °F 50.0 °F 100% 30.11 in 10.0 mi Calm Calm - N/A   Clear
7:35 AM 50.0 °F 50.0 °F 100% 30.11 in 10.0 mi Calm Calm - N/A   Clear
7:55 AM 53.6 °F 53.6 °F 100% 30.11 in 10.0 mi ESE 3.5 mph - N/A   Clear
8:15 AM 55.4 °F 55.4 °F 100% 30.11 in 10.0 mi Calm Calm - N/A   Clear
8:35 AM 57.2 °F 57.2 °F 100% 30.11 in 10.0 mi East 4.6 mph - N/A   Clear
8:55 AM 59.0 °F 57.2 °F 94% 30.11 in 2.5 mi East 4.6 mph - N/A   Clear
9:15 AM 60.8 °F 57.2 °F 88% 30.11 in 10.0 mi East 4.6 mph - N/A   Clear
9:35 AM 62.6 °F 55.4 °F 77% 30.11 in 10.0 mi ESE 6.9 mph - N/A   Clear
10:15 AM 64.4 °F 53.6 °F 68% 30.10 in 10.0 mi SSE 10.4 mph - N/A   Clear
10:35 AM 66.2 °F 53.6 °F 64% 30.10 in 10.0 mi SSE 12.7 mph - N/A   Clear
10:55 AM 66.2 °F 55.4 °F 68% 30.11 in 10.0 mi ESE 8.1 mph - N/A   Clear
11:15 AM 66.2 °F 55.4 °F 68% 30.11 in 10.0 mi ESE 10.4 mph - N/A   Clear
11:35 AM 68.0 °F 55.4 °F 64% 30.11 in 10.0 mi SE 6.9 mph 13.8 mph N/A   Clear
11:55 AM 68.0 °F 55.4 °F 64% 30.11 in 10.0 mi ESE 9.2 mph - N/A   Clear
12:15 PM 69.8 °F 55.4 °F 60% 30.10 in 10.0 mi ESE 11.5 mph - N/A   Clear
12:35 PM 69.8 °F 53.6 °F 56% 30.10 in 10.0 mi SSE 10.4 mph - N/A   Clear
12:55 PM 69.8 °F 53.6 °F 56% 30.09 in 10.0 mi SE 11.5 mph - N/A   Clear
1:15 PM 71.6 °F 53.6 °F 53% 30.09 in 10.0 mi ESE 9.2 mph 16.1 mph N/A   Clear
1:35 PM 71.6 °F 51.8 °F 50% 30.09 in 10.0 mi SE 10.4 mph - N/A   Clear
1:55 PM 71.6 °F 53.6 °F 53% 30.09 in 10.0 mi ESE 9.2 mph 16.1 mph N/A   Clear
2:15 PM 73.4 °F 51.8 °F 47% 30.09 in 10.0 mi SE 13.8 mph - N/A   Clear
2:35 PM 73.4 °F 51.8 °F 47% 30.09 in 10.0 mi SSE 12.7 mph - N/A   Clear
2:55 PM 73.4 °F 51.8 °F 47% 30.08 in 10.0 mi SE 13.8 mph - N/A   Clear
3:15 PM 73.4 °F 51.8 °F 47% 30.08 in 10.0 mi SSE 10.4 mph - N/A   Clear
3:35 PM 73.4 °F 51.8 °F 47% 30.07 in 10.0 mi SE 10.4 mph 19.6 mph N/A   Clear
3:55 PM 73.4 °F 51.8 °F 47% 30.06 in 10.0 mi SE 12.7 mph - N/A   Clear
4:15 PM 73.4 °F 53.6 °F 50% 30.06 in 10.0 mi SE 9.2 mph 15.0 mph N/A   Clear
4:35 PM 73.4 °F 53.6 °F 50% 30.06 in 10.0 mi SSE 8.1 mph 16.1 mph N/A   Scattered Clouds
4:55 PM 73.4 °F 53.6 °F 50% 30.06 in 10.0 mi SE 11.5 mph - N/A   Mostly Cloudy
5:15 PM 73.4 °F 53.6 °F 50% 30.05 in 10.0 mi ESE 12.7 mph - N/A   Mostly Cloudy
5:35 PM 73.4 °F 55.4 °F 53% 30.05 in 10.0 mi ESE 13.8 mph 20.7 mph N/A   Mostly Cloudy
5:55 PM 73.4 °F 53.6 °F 50% 30.05 in 10.0 mi SE 13.8 mph - N/A   Partly Cloudy
6:15 PM 71.6 °F 55.4 °F 57% 30.05 in 10.0 mi East 13.8 mph - N/A   Clear
6:35 PM 71.6 °F 53.6 °F 53% 30.05 in 10.0 mi ESE 12.7 mph - N/A   Clear
6:55 PM 71.6 °F 53.6 °F 53% 30.05 in 10.0 mi ESE 13.8 mph - N/A   Clear
7:15 PM 69.8 °F 55.4 °F 60% 30.05 in 10.0 mi ESE 10.4 mph 17.3 mph N/A   Clear
7:35 PM 69.8 °F 55.4 °F 60% 30.05 in 10.0 mi ESE 11.5 mph - N/A   Clear
7:55 PM 68.0 °F 55.4 °F 64% 30.05 in 10.0 mi ESE 10.4 mph - N/A   Clear
8:15 PM 66.2 °F 55.4 °F 68% 30.06 in 10.0 mi ESE 6.9 mph - N/A   Clear
8:35 PM 64.4 °F 55.4 °F 73% 30.06 in 10.0 mi ESE 6.9 mph - N/A   Clear
8:55 PM 62.6 °F 55.4 °F 77% 30.07 in 10.0 mi ESE 5.8 mph - N/A   Clear
9:15 PM 62.6 °F 55.4 °F 77% 30.08 in 10.0 mi ESE 6.9 mph - N/A   Clear
9:35 PM 60.8 °F 57.2 °F 88% 30.08 in 10.0 mi ESE 8.1 mph - N/A   Clear
9:55 PM 60.8 °F 57.2 °F 88% 30.08 in 10.0 mi SE 6.9 mph - N/A   Clear
10:15 PM 60.8 °F 57.2 °F 88% 30.09 in 10.0 mi SE 9.2 mph - N/A   Clear
10:35 PM 60.8 °F 55.4 °F 82% 30.08 in 10.0 mi ESE 10.4 mph - N/A   Clear
10:55 PM 60.8 °F 55.4 °F 82% 30.09 in 10.0 mi SE 11.5 mph - N/A   Clear
11:15 PM 60.8 °F 53.6 °F 77% 30.09 in 10.0 mi SE 11.5 mph - N/A   Clear
11:35 PM 60.8 °F 53.6 °F 77% 30.09 in 10.0 mi SE 10.4 mph - N/A   Clear
11:55 PM 59.0 °F 53.6 °F 82% 30.09 in 10.0 mi SE 11.5 mph - N/A   Clear